Retour au catalogue

CZ-2C DEB

ActifSSO
NORAD 40290·DEBRIS·🇨🇳 China

Lancé Oct 27, 2014 depuis Jiuquan Satellite Launch Center

Loading…

Prochains Passages (prochaines 24 heures)

TLE

FraisSource: Space-Track

Époque: Sep 14, 2026, 09:22 UTC

1 40290U 14066E   26257.39086180  .00012030  00000-0  88885-3 0  9995
2 40290  97.9603 237.0315 0035772 249.2563 110.4826 15.02868011633373

Suivez CZ-2C DEB en temps réel avec AllMySat

Download on the App Store